Miscellaneous Local Product
Issued by NWS North Platte, NE

Home | Current Version | Previous Version | Text Only | Print | Product List | Glossary On
Versions: 1 2 3 4 5 6 7 8 9 10 11 12 13 14 15 16 17 18 19 20 21 22 23 24 25 26 27 28 29 30 31 32 33 34 35 36 37 38 39 40 41 42 43 44 45 46 47 48 49 50
626
AXUS43 KLBF 230210
MISLBF


WESTERN AND NORTH CENTRAL NEBRASKA HOURLY WEATHER ROUNDUP
NATIONAL WEATHER SERVICE NORTH PLATTE NE
900 PM CDT WED MAR 22 2017

NOTE: "FAIR" INDICATES FEW OR NO CLOUDS BELOW 12,000 FEET WITH NO
SIGNIFICANT WEATHER AND/OR OBSTRUCTIONS TO VISIBILITY.

NOTE: STATIONS NOT REPORTING VARIABLES SUCH AS SKY/WEATHER OR
PRESSURE ARE PROVIDED BY RAWS AND APRS NETWORKS AND ARE NOT UNDER
NATIONAL WEATHER SERVICE QUALITY CONTROL.

...OBSERVATIONS IN AND NEAR THE EASTERN PANHANDLE OF NEBRASKA...

CITY           SKY/WX    TMP DP  RH WIND       PRES   REMARKS
PINE RIDGE     CLEAR     58  38  47 S26G35    29.79S
CHADRON        CLEAR     59  37  44 S24G30    29.77F
ALLIANCE       CLOUDY    52  36  54 SE16      29.84R
SIDNEY         CLOUDY    51  36  56 S20       29.86S
CRESCENT LAKE    N/A     51  35  55 S15G23      N/A
$$

...OBSERVATIONS IN NORTHERN NEBRASKA AND FAR SOUTHERN SOUTH DAKOTA...

CITY           SKY/WX    TMP DP  RH WIND       PRES   REMARKS
WINNER         FAIR      50  30  46 S14       29.92S
VALENTINE      CLOUDY    47  30  51 S16       29.91S
THEDFORD       PTCLDY    46  31  56 S12       29.96S
AINSWORTH      CLOUDY    46  32  57 S17G23    29.95S
O`NEILL        CLOUDY    51  20  29 S20       30.01S
ORD            CLOUDY    50  23  34 S18G24    30.04R
BROKEN BOW     CLOUDY    48  27  44 S21G30    30.01S
VALENTINE NWR    N/A     46  30  54 S14G23      N/A
HALSEY           N/A     46  29  51 S9G20       N/A
BUTTE            N/A     46  26  45 SE17G28     N/A
CHAMBERS         N/A     50  25  37 MISG        N/A
EWING            N/A     46  24  42 S12G20      N/A
$$

...OBSERVATIONS IN SOUTHWEST NEBRASKA AND FAR NORTHEAST COLORADO...

CITY           SKY/WX    TMP DP  RH WIND       PRES   REMARKS
WRAY           FAIR      54  37  54 SE17      29.91S
HOLYOKE        FAIR      54  37  54 SE16      29.91S
IMPERIAL       CLOUDY    48  32  53 SE18      29.94S
OGALLALA       CLOUDY    50  33  52 SE12      29.93S
NORTH PLATTE   CLOUDY    47  30  51 SE13      29.99R
MCCOOK         PTCLDY    47  32  56 SE14      30.00S
LEXINGTON      CLOUDY    49  27  43 SE14      30.03S
STAPLETON        N/A     43  31  63 CALM        N/A
GOTHENBURG       N/A     48  28  45 SE12        N/A
CALLAWAY         N/A     47  31  53 S20         N/A
$$

...OBSERVATIONS IN CENTRAL LINCOLN COUNTY AREA...

CITY           SKY/WX    TMP DP  RH WIND       PRES   REMARKS
N.P. AIRPORT   CLOUDY    47  30  51 SE13      29.99R
N.P. DOWNTOWN    N/A     46  32  59 SE5G12      N/A
N.P. SOUTHEAST   N/A     45  31  57 SE7         N/A
N.P. HILLCREST   N/A     46  33  61 SE15        N/A
$$

...SOME OBSERVATIONS FROM AROUND THE REGION...

CITY           SKY/WX    TMP DP  RH WIND       PRES   REMARKS
DENVER         CLOUDY    61  33  35 W6        29.84S
LIMON          CLOUDY    56  40  55 SE17      29.90S
ASPEN          CLOUDY    48  28  46 S6        29.98F
LARAMIE        CLOUDY    52  22  30 S15       29.89S
GILLETTE       CLOUDY    49  39  68 CALM      29.76F
CHEYENNE       CLOUDY    57  32  38 SW6       29.88R
SCOTTSBLUFF    CLOUDY    58  35  42 E18       29.81S
GRAND ISLAND   CLOUDY    51  24  34 SE17G23   30.07F
OMAHA          CLOUDY    47  24  40 SE16      30.19S
SIOUX FALLS    CLOUDY    39  26  59 SE16G25   30.13F WCI  30
PIERRE         CLOUDY    48  29  47 SE15      29.87R
RAPID CITY     MOCLDY    51  41  68 N7        29.78S
BISMARCK       PTCLDY    36  29  75 SE12      29.90R WCI  28
KANSAS CITY    CLOUDY    52  27  38 SE21      30.20F
HILL CITY      CLOUDY    50  36  58 SE10      30.04R
WICHITA        PTCLDY    53  40  61 E14       30.08S
DODGE CITY     CLOUDY    50  39  66 SE16      30.01F
OKLAHOMA CITY  CLOUDY    63  55  75 SE18      30.04S
DALLAS         CLEAR     74  60  61 SE10      30.03R
AMARILLO       CLEAR     61  48  62 SE15      29.99F
$$




USA.gov is the U.S. government's official web portal to all federal, state and local government web resources and services.